Regional Weather Roundup
Issued by NWS

Home | Current Version | Previous Version | Graphics & Text | Print | Product List | Glossary On
Versions: 1 2 3 4 5 6 7 8 9 10 11 12 13 14 15 16 17 18 19 20 21 22 23 24 25 26 27 28 29 30 31 32 33 34 35 36 37 38 39 40 41 42 43 44 45 46 47 48 49 50
404
ASUS44 KMEG 241810
RWRTN
TENNESSEE HOURLY STATE WEATHER ROUNDUP
NATIONAL WEATHER SERVICE MEMPHIS TN
1200 PM CST FRI NOV 24 2017

TNZ002-004-019-021-049-052-054-088>092-241900-
WEST TENNESSEE

CITY           SKY/WX    TMP DP  RH WIND       PRES   REMARKS
MEMPHIS INTL   PTSUNNY   61  32  33 SW10      29.96F
NWS MEMPHIS      N/A     58 N/A N/A MISG        N/A
JACKSON        SUNNY     61  31  32 S12       29.94F
DYERSBURG      CLOUDY    59  34  39 VRB7      29.93F
SOMERVILLE     SUNNY     61  30  31 S8G15     29.94F
COVINGTON      SUNNY     59  34  38 S9        29.94F
UNION CITY     SUNNY     59  32  36 SW12      29.91F
BOLIVAR        SUNNY     59  27  29 S6G13     29.95F
PARIS          SUNNY     61  30  31 S10       29.91F
HUNTINGDON     SUNNY     61  28  29 S12       29.92F
LEXINGTON      SUNNY     57  27  30 S12       29.95F
SELMER         SUNNY     59  25  27 VRB6G12   29.96F
SAVANNAH       SUNNY     59  23  25 S8        29.97F
$$

TNZ008-025-027-028-033-062-065-066-241900-
NORTH MIDDLE TENNESSEE

CITY           SKY/WX    TMP DP  RH WIND       PRES   REMARKS
NASHVILLE      PTSUNNY   60  19  20 SW10      29.97F
PORTLAND       SUNNY     55  23  28 S9G15     29.95F
CLARKSVILLE    SUNNY     57  21  24 SW10      29.94F
SMYRNA         SUNNY     61  26  26 S9        29.97F
COOKEVILLE     SUNNY     59  37  44 SW10      29.96F
GALLATIN       SUNNY     57  25  28 SW5       29.98F
CROSSVILLE     SUNNY     56  34  43 VRB6      29.97F
$$

TNZ061-075-076-078-094-096-097-241900-
SOUTH MIDDLE TENNESSEE

CITY           SKY/WX    TMP DP  RH WIND       PRES   REMARKS
FAYETTEVILLE   SUNNY     59  39  47 VRB6      29.97F
TULLAHOMA      SUNNY     59  37  44 SW10      29.96F
WINCHESTER     SUNNY     61  37  41 S6        29.97F
MCMINNVILLE    SUNNY     59  37  44 SW8       29.96F
COLUMBIA       SUNNY     59  21  23 SW8G14    29.95F
SHELBYVILLE    SUNNY     59  37  44 SW10      29.97F
$$

TNZ017-018-042-046-047-241900-
NORTHEAST TENNESSEE

CITY           SKY/WX    TMP DP  RH WIND       PRES   REMARKS
TRI CITIES     SUNNY     55  37  50 SW5       29.97F
ELIZABETHTON   SUNNY     57  36  44 CALM      29.95F
$$

TNZ012-013-036-069-073-074-241900-
CENTRAL EAST TENNESSEE

CITY           SKY/WX    TMP DP  RH WIND       PRES   REMARKS
KNOXVILLE      MOSUNNY   57  43  59 VRB7      29.96F
OAK RIDGE      SUNNY     56  38  50 W6        29.99F
DOWNTOWN KNOXV SUNNY     57  41  54 W8        29.97F
GATLINBURG     SUNNY     55  39  54 NW5       29.97F
MORRISTOWN     SUNNY     55  37  50 CALM      29.96F
JACKSBORO      SUNNY     55  37  50 CALM      30.00F
$$

TNZ083-085-099-241900-
SOUTHEAST TENNESSEE

CITY           SKY/WX    TMP DP  RH WIND       PRES   REMARKS
CHATTANOOGA    MOSUNNY   58  38  47 SW5       29.98F
DAYTON         CLEAR     55  43  62 CALM      29.98F
$$

SKY/WX REPORTED AS FAIR MEANS FEW OR NO CLOUDS BELOW
12 THOUSAND FEET.





USA.gov is the U.S. government's official web portal to all federal, state and local government web resources and services.